Flag for Turkey

Past Weather in Izmir, Turkey — Yesterday and Last 2 Weeks

Now
73 °F

Clear.


Feels Like: 76 °F
Forecast: 97 / 71 °F
Wind: 13 mph from North

Location: Izmir / Cigli

Current Time: Jul 9, 2020 at 5:23:12 am

Latest Report: Jul 9, 2020 at 3:50 am


Visibility: 10 mi

Pressure: 29.86 "Hg

Humidity: 69%

Dew Point: 63 °F

Location of IzmirLocation

Past Weather in Izmir — Graph

°F

Izmir Temperature Yesterday

Maximum temperature yesterday: 91 °F (at 1:50 pm)
Minimum temperature yesterday: 75 °F (at 1:50 am)
Average temperature yesterday: 83 °F

High & Low Weather Summary for the Past Weeks

 TemperatureHumidityPressure
High102 °F (Jul 5, 4:50 pm)94% (Jun 25, 1:50 am)30.04 "Hg (Jun 25, 1:50 am)
Low64 °F (Jun 30, 4:50 am)14% (Jun 30, 4:27 pm)29.47 "Hg (Jul 6, 4:50 pm)
Average83 °F55%29.76 "Hg
* Reported Jun 24 1:50 am — Jul 9 1:50 am, Izmir. Weather by CustomWeather, © 2020

Note: Actual official high and low records may vary slightly from our data, if they occured in-between our weather recording intervals... More about our weather records

Izmir Weather History for the Previous 24 Hours

Scroll right to see more
 ConditionsComfort  
Time TempWeatherWind HumidityBarometerVisibility
1:50 am
Thu, Jul 9
73 °FClear.9 mph69%29.86 "Hg10 mi
12:50 am75 °FClear.16 mph65%29.86 "Hg10 mi
11:50 pm
Wed, Jul 8
77 °FClear.16 mph61%29.86 "Hg10 mi
10:50 pm77 °FClear.14 mph65%29.86 "Hg10 mi
9:50 pm79 °FPassing clouds.13 mph61%29.86 "HgN/A
8:50 pm81 °FClear.12 mph58%29.83 "Hg10 mi
7:50 pm84 °FPassing clouds.9 mph51%29.83 "HgN/A
6:50 pm88 °FPassing clouds.13 mph46%29.80 "HgN/A
5:50 pm88 °FPassing clouds.20 mph49%29.80 "HgN/A
3:50 pm91 °FPassing clouds.12 mph44%29.80 "HgN/A
2:50 pm90 °FPassing clouds.16 mph49%29.80 "HgN/A
1:50 pm91 °FPassing clouds.15 mph46%29.80 "HgN/A
12:50 pm90 °FPassing clouds.14 mph49%29.80 "HgN/A
11:50 am86 °FPassing clouds.14 mph52%29.80 "HgN/A
10:50 am86 °FPassing clouds.17 mph55%29.80 "HgN/A
9:50 am86 °FPassing clouds.14 mph55%29.77 "HgN/A
8:50 am84 °FPassing clouds.12 mph58%29.77 "HgN/A
7:50 am81 °FSunny.14 mph66%29.74 "Hg10 mi
6:50 am79 °FSunny.10 mph70%29.71 "Hg10 mi
5:50 am77 °FClear.10 mph79%29.71 "Hg10 mi
Weather by CustomWeather, © 2020

See weather overview